| time (UTC) | temp F | wind direction | speed knots | gust knots | rain 1hr in | rain 24hr in | rain mn in | humidity % | barometer mb |
| 20260510162417 | 76 | 35 | 0.0 | 1.7 | 0.00 | 0.00 | 0.00 | 89 | 1018.7 |
| 20260510161913 | 76 | 82 | 0.0 | 0.0 | 0.00 | 0.00 | 0.00 | 90 | 1018.9 |
| 20260510161408 | 75 | 79 | 1.7 | 2.6 | 0.00 | 0.00 | 0.00 | 90 | 1018.6 |
| 20260510160906 | 75 | 90 | 1.7 | 2.6 | 0.00 | 0.00 | 0.00 | 91 | 1018.7 |
| 20260510160403 | 75 | 90 | 0.0 | 1.7 | 0.00 | 0.00 | 0.00 | 92 | 1018.6 |
| 20260510155902 | 75 | 103 | 0.0 | 0.9 | 0.00 | 0.00 | 0.00 | 92 | 1018.7 |
| 20260510155359 | 74 | 77 | 0.9 | 1.7 | 0.00 | 0.00 | 0.00 | 92 | 1018.6 |
| 20260510154855 | 74 | 85 | 1.7 | 1.7 | 0.00 | 0.00 | 0.00 | 93 | 1018.6 |
| 20260510154352 | 74 | 83 | 0.0 | 1.7 | 0.00 | 0.00 | 0.00 | 93 | 1018.6 |
| 20260510153845 | 74 | 63 | 1.7 | 1.7 | 0.00 | 0.00 | 0.00 | 93 | 1018.8 |
| 20260510153341 | 74 | 105 | 0.9 | 1.7 | 0.00 | 0.00 | 0.00 | 94 | 1018.8 |
| 20260510152838 | 73 | 83 | 0.9 | 1.7 | 0.00 | 0.00 | 0.00 | 94 | 1018.8 |
| 20260510152336 | 73 | 83 | 0.9 | 1.7 | 0.00 | 0.00 | 0.00 | 94 | 1018.8 |
| 20260510151832 | 74 | 114 | 0.9 | 1.7 | 0.00 | 0.00 | 0.00 | 94 | 1018.4 |
| 20260510151330 | 73 | 82 | 0.9 | 1.7 | 0.00 | 0.00 | 0.00 | 95 | 1018.9 |
| 20260510150825 | 73 | 90 | 0.0 | 0.9 | 0.00 | 0.00 | 0.00 | 95 | 1018.7 |
| 20260510150321 | 73 | 90 | 0.0 | 2.6 | 0.00 | 0.00 | 0.00 | 95 | 1018.6 |
| 20260510145818 | 74 | 29 | 0.9 | 1.7 | 0.00 | 0.00 | 0.00 | 95 | 1018.7 |
| 20260510145314 | 74 | 90 | 0.0 | 0.9 | 0.00 | 0.00 | 0.00 | 95 | 1018.7 |
| 20260510144811 | 73 | 74 | 0.0 | 0.0 | 0.00 | 0.00 | 0.00 | 95 | 1018.3 |
| 20260510144308 | 73 | 172 | 0.0 | 0.9 | 0.00 | 0.00 | 0.00 | 95 | 1018.3 |
| 20260510143807 | 74 | 99 | 0.0 | 0.9 | 0.00 | 0.00 | 0.00 | 95 | 1018.4 |
| 20260510143303 | 73 | 81 | 1.7 | 1.7 | 0.00 | 0.00 | 0.00 | 95 | 1018.4 |
| 20260510142800 | 73 | 74 | 0.9 | 1.7 | 0.00 | 0.00 | 0.00 | 95 | 1018.3 |
| 20260510142257 | 73 | 57 | 1.7 | 1.7 | 0.00 | 0.00 | 0.00 | 95 | 1018.4 |
| 20260510141754 | 73 | 120 | 0.0 | 1.7 | 0.00 | 0.00 | 0.00 | 95 | 1018.5 |
| 20260510141252 | 73 | 102 | 1.7 | 1.7 | 0.00 | 0.00 | 0.00 | 96 | 1018.4 |
| 20260510140749 | 72 | 74 | 0.0 | 1.7 | 0.00 | 0.00 | 0.00 | 95 | 1018.4 |
| 20260510140244 | 73 | 106 | 0.0 | 1.7 | 0.00 | 0.00 | 0.00 | 95 | 1018.6 |
| 20260510135738 | 72 | 75 | 0.0 | 0.0 | 0.00 | 0.00 | 0.00 | 96 | 1018.4 |
| 20260510135233 | 72 | 90 | 0.9 | 0.9 | 0.00 | 0.00 | 0.00 | 95 | 1018.2 |
| 20260510134732 | 72 | 90 | 0.9 | 1.7 | 0.00 | 0.00 | 0.00 | 96 | 1018.1 |
| 20260510134229 | 72 | 82 | 0.0 | 0.0 | 0.00 | 0.00 | 0.00 | 96 | 1018.2 |
| 20260510133724 | 72 | 82 | 0.0 | 0.0 | 0.00 | 0.00 | 0.00 | 96 | 1018.2 |
| 20260510133220 | 72 | 82 | 0.0 | 0.0 | 0.00 | 0.00 | 0.00 | 96 | 1018.5 |
| 20260510132716 | 72 | 74 | 1.7 | 1.7 | 0.00 | 0.00 | 0.00 | 96 | 1018.2 |
| 20260510132214 | 72 | 0 | 0.0 | 0.9 | 0.00 | 0.00 | 0.00 | 96 | 1018.0 |
| 20260510131711 | 72 | 74 | 0.0 | 0.9 | 0.00 | 0.00 | 0.00 | 96 | 1018.1 |
| 20260510131209 | 72 | 291 | 0.9 | 2.6 | 0.00 | 0.00 | 0.00 | 96 | 1017.8 |
| 20260510130705 | 72 | 90 | 0.0 | 0.9 | 0.00 | 0.00 | 0.00 | 96 | 1017.9 |
| 20260510130203 | 72 | 75 | 0.0 | 0.9 | 0.00 | 0.00 | 0.00 | 96 | 1018.0 |
| 20260510125658 | 71 | 66 | 0.9 | 1.7 | 0.00 | 0.00 | 0.00 | 96 | 1018.1 |
| 20260510125155 | 72 | 346 | 0.0 | 0.9 | 0.00 | 0.00 | 0.00 | 96 | 1018.0 |
| 20260510124652 | 72 | 53 | 0.0 | 1.7 | 0.00 | 0.00 | 0.00 | 96 | 1017.7 |
| 20260510124149 | 72 | 353 | 0.0 | 2.6 | 0.00 | 0.00 | 0.00 | 96 | 1017.8 |
| 20260510123644 | 71 | 35 | 0.9 | 1.7 | 0.00 | 0.00 | 0.00 | 96 | 1017.9 |
| 20260510123140 | 71 | 0 | 0.0 | 0.9 | 0.00 | 0.00 | 0.00 | 96 | 1017.6 |
| 20260510122637 | 71 | 7 | 0.0 | 1.7 | 0.00 | 0.00 | 0.00 | 96 | 1017.5 |
| 20260510122133 | 71 | 90 | 0.0 | 1.7 | 0.00 | 0.00 | 0.00 | 96 | 1017.5 |
| 20260510121629 | 72 | 36 | 0.0 | 1.7 | 0.00 | 0.00 | 0.00 | 96 | 1017.5 |
| 20260510121127 | 72 | 325 | 0.0 | 1.7 | 0.00 | 0.00 | 0.00 | 96 | 1017.5 |
| 20260510120625 | 72 | 54 | 0.9 | 1.7 | 0.00 | 0.00 | 0.00 | 96 | 1017.4 |
| 20260510120120 | 72 | 82 | 0.9 | 1.7 | 0.00 | 0.00 | 0.00 | 95 | 1017.2 |
| 20260510115617 | 72 | 66 | 0.0 | 2.6 | 0.00 | 0.00 | 0.00 | 96 | 1017.2 |
| 20260510115114 | 72 | 7 | 0.0 | 0.0 | 0.00 | 0.00 | 0.00 | 95 | 1017.2 |
| 20260510114609 | 72 | 81 | 0.0 | 0.9 | 0.00 | 0.00 | 0.00 | 96 | 1017.0 |
| 20260510114106 | 72 | 90 | 0.0 | 1.7 | 0.00 | 0.00 | 0.00 | 96 | 1017.0 |
| 20260510113601 | 72 | 345 | 0.0 | 0.9 | 0.00 | 0.00 | 0.00 | 95 | 1017.1 |
| 20260510113059 | 72 | 90 | 0.9 | 1.7 | 0.00 | 0.00 | 0.00 | 95 | 1016.9 |
| 20260510112555 | 72 | 99 | 0.0 | 0.0 | 0.00 | 0.00 | 0.00 | 95 | 1017.1 |
| 20260510112052 | 72 | 90 | 0.0 | 0.9 | 0.00 | 0.00 | 0.00 | 95 | 1016.9 |
| 20260510111548 | 72 | 90 | 0.0 | 0.0 | 0.00 | 0.00 | 0.00 | 95 | 1016.7 |
| 20260510111044 | 72 | 81 | 0.0 | 1.7 | 0.00 | 0.00 | 0.00 | 95 | 1016.7 |
| 20260510110541 | 72 | 98 | 0.0 | 1.7 | 0.00 | 0.00 | 0.00 | 95 | 1016.3 |
| 20260510110037 | 72 | 90 | 0.0 | 0.9 | 0.00 | 0.00 | 0.00 | 95 | 1016.4 |
| 20260510105532 | 71 | 106 | 0.9 | 0.9 | 0.00 | 0.00 | 0.00 | 95 | 1016.1 |
| 20260510105027 | 71 | 114 | 0.9 | 1.7 | 0.00 | 0.00 | 0.00 | 95 | 1016.5 |
| 20260510104524 | 72 | 98 | 0.0 | 1.7 | 0.00 | 0.00 | 0.00 | 95 | 1016.4 |
| 20260510104021 | 72 | 111 | 0.9 | 1.7 | 0.00 | 0.00 | 0.00 | 95 | 1016.3 |
| 20260510103518 | 71 | 106 | 0.0 | 0.0 | 0.00 | 0.00 | 0.00 | 95 | 1016.4 |
| 20260510103014 | 72 | 81 | 0.0 | 4.3 | 0.00 | 0.00 | 0.00 | 95 | 1016.0 |
| 20260510102510 | 71 | 90 | 0.0 | 0.0 | 0.00 | 0.00 | 0.00 | 95 | 1016.3 |
| 20260510102007 | 71 | 106 | 0.9 | 0.9 | 0.00 | 0.00 | 0.00 | 95 | 1016.1 |
| 20260510101504 | 71 | 114 | 0.0 | 0.9 | 0.00 | 0.00 | 0.00 | 95 | 1016.2 |
| 20260510101003 | 71 | 114 | 0.0 | 1.7 | 0.00 | 0.00 | 0.00 | 95 | 1015.7 |
| 20260510100458 | 71 | 90 | 0.0 | 0.9 | 0.00 | 0.00 | 0.00 | 95 | 1016.0 |
| 20260510095955 | 71 | 106 | 0.0 | 0.9 | 0.00 | 0.00 | 0.00 | 95 | 1015.8 |
| 20260510095451 | 71 | 99 | 0.0 | 0.0 | 0.00 | 0.00 | 0.00 | 95 | 1015.9 |
| 20260510094950 | 71 | 99 | 0.0 | 0.0 | 0.00 | 0.00 | 0.00 | 95 | 1016.0 |
| 20260510094445 | 71 | 90 | 0.0 | 0.9 | 0.00 | 0.00 | 0.00 | 95 | 1015.8 |
| 20260510093941 | 71 | 81 | 0.0 | 0.9 | 0.00 | 0.00 | 0.00 | 95 | 1015.7 |
| 20260510093436 | 71 | 120 | 0.0 | 0.0 | 0.00 | 0.00 | 0.00 | 95 | 1015.4 |
| 20260510092933 | 71 | 103 | 0.0 | 1.7 | 0.00 | 0.00 | 0.00 | 95 | 1015.6 |
| 20260510092431 | 71 | 120 | 0.9 | 1.7 | 0.00 | 0.00 | 0.00 | 95 | 1015.8 |
| 20260510091930 | 71 | 99 | 0.0 | 1.7 | 0.00 | 0.00 | 0.00 | 95 | 1015.5 |
| 20260510091428 | 71 | 126 | 0.9 | 0.9 | 0.00 | 0.00 | 0.00 | 95 | 1015.5 |
| 20260510090924 | 71 | 140 | 0.0 | 1.7 | 0.00 | 0.00 | 0.00 | 95 | 1015.5 |
| 20260510090421 | 71 | 106 | 0.0 | 0.9 | 0.00 | 0.00 | 0.00 | 95 | 1015.4 |
| 20260510085917 | 71 | 99 | 0.0 | 0.0 | 0.00 | 0.00 | 0.00 | 95 | 1015.4 |
| 20260510085412 | 71 | 106 | 0.0 | 0.0 | 0.00 | 0.00 | 0.00 | 95 | 1015.2 |
| 20260510084907 | 71 | 106 | 0.0 | 0.9 | 0.00 | 0.00 | 0.00 | 95 | 1015.0 |
| 20260510084405 | 71 | 102 | 1.7 | 1.7 | 0.00 | 0.00 | 0.00 | 95 | 1014.9 |
| 20260510083901 | 71 | 106 | 0.9 | 0.9 | 0.00 | 0.00 | 0.00 | 95 | 1015.0 |
| 20260510083358 | 71 | 106 | 0.0 | 0.9 | 0.00 | 0.00 | 0.00 | 95 | 1015.3 |
| 20260510082853 | 71 | 114 | 0.0 | 0.9 | 0.00 | 0.00 | 0.00 | 95 | 1014.9 |
| 20260510082351 | 71 | 117 | 0.9 | 1.7 | 0.00 | 0.00 | 0.00 | 95 | 1014.8 |
| 20260510081850 | 72 | 97 | 0.0 | 1.7 | 0.00 | 0.00 | 0.00 | 95 | 1014.8 |
| 20260510081346 | 71 | 99 | 0.0 | 1.7 | 0.00 | 0.00 | 0.00 | 95 | 1014.8 |
| 20260510080843 | 72 | 106 | 0.9 | 1.7 | 0.00 | 0.00 | 0.00 | 95 | 1015.0 |
| 20260510080336 | 72 | 105 | 0.9 | 1.7 | 0.00 | 0.00 | 0.00 | 95 | 1015.2 |
| 20260510075834 | 72 | 81 | 0.0 | 0.9 | 0.00 | 0.00 | 0.00 | 95 | 1015.2 |
| 20260510075332 | 71 | 90 | 0.0 | 0.9 | 0.00 | 0.00 | 0.00 | 95 | 1015.2 |
| 20260510074828 | 71 | 90 | 0.0 | 0.0 | 0.00 | 0.00 | 0.00 | 95 | 1015.2 |
| 20260510074325 | 71 | 90 | 0.0 | 0.0 | 0.00 | 0.00 | 0.00 | 95 | 1015.0 |
| 20260510073821 | 71 | 160 | 0.0 | 0.9 | 0.00 | 0.00 | 0.00 | 95 | 1014.8 |
| 20260510073317 | 71 | 120 | 0.0 | 1.7 | 0.00 | 0.00 | 0.00 | 95 | 1014.9 |
| 20260510072814 | 71 | 107 | 1.7 | 1.7 | 0.00 | 0.00 | 0.00 | 95 | 1014.9 |
| 20260510072310 | 71 | 103 | 0.9 | 1.7 | 0.00 | 0.00 | 0.00 | 95 | 1014.8 |
| 20260510071807 | 71 | 106 | 0.0 | 0.9 | 0.00 | 0.00 | 0.00 | 95 | 1014.9 |
| 20260510071303 | 71 | 90 | 0.0 | 0.0 | 0.00 | 0.00 | 0.00 | 95 | 1014.8 |
| 20260510070757 | 71 | 106 | 0.0 | 0.9 | 0.00 | 0.00 | 0.00 | 95 | 1015.0 |
| 20260510070253 | 71 | 90 | 0.0 | 0.0 | 0.00 | 0.00 | 0.00 | 95 | 1015.0 |
| 20260510065753 | 71 | 90 | 0.0 | 1.7 | 0.00 | 0.00 | 0.00 | 95 | 1014.6 |
| 20260510065250 | 71 | 90 | 0.0 | 0.9 | 0.00 | 0.00 | 0.00 | 95 | 1014.9 |
| 20260510064746 | 72 | 74 | 0.0 | 0.9 | 0.00 | 0.00 | 0.00 | 95 | 1015.0 |
| 20260510064244 | 71 | 105 | 0.0 | 0.0 | 0.00 | 0.00 | 0.00 | 95 | 1015.0 |
| 20260510063740 | 71 | 106 | 0.0 | 0.0 | 0.00 | 0.00 | 0.00 | 95 | 1014.9 |
| 20260510063236 | 71 | 106 | 0.0 | 0.9 | 0.00 | 0.00 | 0.00 | 95 | 1015.0 |
| 20260510062733 | 71 | 102 | 1.7 | 1.7 | 0.00 | 0.00 | 0.00 | 95 | 1015.1 |
| 20260510062229 | 71 | 114 | 0.0 | 0.9 | 0.00 | 0.00 | 0.00 | 95 | 1015.1 |
| 20260510061725 | 71 | 114 | 1.7 | 2.6 | 0.00 | 0.00 | 0.00 | 95 | 1014.9 |
| 20260510061222 | 71 | 90 | 1.7 | 1.7 | 0.00 | 0.00 | 0.00 | 95 | 1015.1 |
| 20260510060718 | 71 | 103 | 0.9 | 1.7 | 0.00 | 0.00 | 0.00 | 95 | 1015.2 |
| 20260510060215 | 71 | 114 | 0.0 | 0.9 | 0.00 | 0.00 | 0.00 | 95 | 1015.4 |
| 20260510055712 | 71 | 90 | 0.0 | 0.0 | 0.00 | 0.00 | 0.00 | 95 | 1015.6 |
| 20260510055210 | 71 | 90 | 0.0 | 0.9 | 0.00 | 0.00 | 0.00 | 95 | 1015.7 |
| 20260510054705 | 71 | 105 | 0.0 | 0.0 | 0.00 | 0.00 | 0.00 | 95 | 1015.7 |
| 20260510054200 | 71 | 120 | 0.0 | 0.9 | 0.00 | 0.00 | 0.00 | 95 | 1015.6 |
| 20260510053700 | 71 | 105 | 0.9 | 1.7 | 0.00 | 0.00 | 0.00 | 95 | 1015.6 |
| 20260510053157 | 71 | 120 | 1.7 | 1.7 | 0.00 | 0.00 | 0.00 | 95 | 1015.8 |
| 20260510052652 | 71 | 105 | 2.6 | 2.6 | 0.00 | 0.00 | 0.00 | 95 | 1015.9 |
| 20260510052149 | 71 | 90 | 0.0 | 1.7 | 0.00 | 0.00 | 0.00 | 95 | 1015.7 |
| 20260510051645 | 71 | 98 | 0.0 | 1.7 | 0.00 | 0.00 | 0.00 | 95 | 1016.0 |
| 20260510051141 | 71 | 74 | 0.9 | 1.7 | 0.00 | 0.00 | 0.00 | 95 | 1016.1 |
| 20260510050639 | 71 | 105 | 0.0 | 0.0 | 0.00 | 0.00 | 0.00 | 94 | 1016.2 |
| 20260510050136 | 71 | 151 | 0.0 | 0.0 | 0.00 | 0.00 | 0.00 | 94 | 1016.2 |
| 20260510045632 | 70 | 174 | 0.0 | 0.0 | 0.00 | 0.00 | 0.00 | 94 | 1016.4 |
| 20260510045129 | 70 | 106 | 0.0 | 0.0 | 0.00 | 0.00 | 0.00 | 94 | 1016.1 |
| 20260510044625 | 71 | 145 | 0.0 | 1.7 | 0.00 | 0.00 | 0.00 | 94 | 1016.4 |
| 20260510044123 | 71 | 111 | 0.0 | 0.9 | 0.00 | 0.00 | 0.00 | 94 | 1016.2 |
| 20260510043618 | 71 | 114 | 0.0 | 0.9 | 0.00 | 0.00 | 0.00 | 94 | 1016.4 |
| 20260510043115 | 71 | 151 | 0.9 | 0.9 | 0.00 | 0.00 | 0.00 | 95 | 1016.2 |
| 20260510042613 | 71 | 103 | 0.0 | 1.7 | 0.00 | 0.00 | 0.00 | 94 | 1016.3 |
| 20260510042108 | 71 | 99 | 0.0 | 0.0 | 0.00 | 0.00 | 0.00 | 94 | 1016.5 |
| 20260510041606 | 71 | 99 | 0.0 | 0.0 | 0.00 | 0.00 | 0.00 | 94 | 1016.3 |
| 20260510041103 | 71 | 99 | 0.0 | 0.0 | 0.00 | 0.00 | 0.00 | 94 | 1016.3 |
| 20260510040600 | 71 | 99 | 0.0 | 0.0 | 0.00 | 0.00 | 0.00 | 94 | 1016.4 |
| 20260510040056 | 71 | 99 | 0.0 | 0.0 | 0.00 | 0.35 | 0.35 | 94 | 1016.1 |
| 20260510035552 | 71 | 99 | 0.0 | 0.0 | 0.00 | 0.35 | 0.35 | 94 | 1016.6 |
| 20260510035052 | 71 | 99 | 0.0 | 0.0 | 0.00 | 0.35 | 0.35 | 94 | 1016.3 |
| 20260510034550 | 71 | 99 | 0.0 | 0.0 | 0.00 | 0.35 | 0.35 | 94 | 1016.6 |
| 20260510034047 | 71 | 114 | 0.0 | 0.0 | 0.00 | 0.35 | 0.35 | 94 | 1016.5 |
| 20260510033543 | 72 | 157 | 0.0 | 0.0 | 0.00 | 0.35 | 0.35 | 94 | 1016.3 |
| 20260510033041 | 71 | 172 | 0.0 | 0.0 | 0.00 | 0.35 | 0.35 | 94 | 1016.3 |
| 20260510032537 | 71 | 172 | 0.0 | 0.0 | 0.00 | 0.35 | 0.35 | 94 | 1016.3 |
| 20260510032033 | 71 | 172 | 0.0 | 0.0 | 0.00 | 0.35 | 0.35 | 94 | 1016.3 |
| 20260510031528 | 71 | 172 | 0.0 | 0.0 | 0.00 | 0.35 | 0.35 | 94 | 1016.7 |
| 20260510031024 | 71 | 172 | 0.0 | 0.0 | 0.00 | 0.35 | 0.35 | 94 | 1016.6 |
| 20260510030520 | 71 | 172 | 0.0 | 0.0 | 0.00 | 0.35 | 0.35 | 94 | 1016.3 |
| 20260510030017 | 71 | 172 | 0.0 | 0.0 | 0.00 | 0.35 | 0.35 | 94 | 1016.2 |
| 20260510025514 | 71 | 172 | 0.0 | 0.0 | 0.00 | 0.35 | 0.35 | 94 | 1016.4 |
| 20260510025012 | 71 | 172 | 0.0 | 0.0 | 0.00 | 0.35 | 0.35 | 94 | 1016.4 |
| 20260510024508 | 71 | 180 | 0.0 | 0.0 | 0.00 | 0.35 | 0.35 | 94 | 1016.2 |
| 20260510024004 | 72 | 90 | 0.0 | 1.7 | 0.00 | 0.35 | 0.35 | 94 | 1015.7 |
| 20260510023500 | 71 | 90 | 0.0 | 0.0 | 0.00 | 0.35 | 0.35 | 94 | 1015.8 |
| 20260510022957 | 71 | 90 | 0.0 | 0.0 | 0.02 | 0.35 | 0.35 | 94 | 1015.8 |
| 20260510022457 | 71 | 90 | 0.0 | 0.0 | 0.02 | 0.35 | 0.35 | 94 | 1015.7 |
| 20260510021956 | 71 | 90 | 0.0 | 0.0 | 0.00 | 0.35 | 0.35 | 94 | 1015.5 |
| 20260510021454 | 72 | 90 | 0.0 | 0.0 | 0.00 | 0.35 | 0.35 | 94 | 1015.5 |
| 20260510020951 | 71 | 90 | 0.0 | 0.0 | 0.00 | 0.35 | 0.35 | 94 | 1015.6 |
| 20260510020450 | 72 | 90 | 0.0 | 0.0 | 0.00 | 0.35 | 0.35 | 94 | 1015.6 |
| 20260510015946 | 72 | 90 | 0.0 | 0.0 | 0.00 | 0.35 | 0.35 | 94 | 1015.2 |
| 20260510015443 | 71 | 90 | 0.0 | 0.0 | 0.00 | 0.35 | 0.35 | 94 | 1015.0 |
| 20260510014938 | 72 | 90 | 0.0 | 0.0 | 0.00 | 0.35 | 0.35 | 94 | 1015.0 |
| 20260510014436 | 71 | 90 | 0.0 | 0.0 | 0.00 | 0.35 | 0.35 | 94 | 1014.9 |
| 20260510013932 | 72 | 90 | 0.0 | 0.0 | 0.00 | 0.35 | 0.35 | 94 | 1014.9 |
| 20260510013427 | 71 | 90 | 0.0 | 0.0 | 0.00 | 0.35 | 0.35 | 94 | 1015.1 |
| 20260510012923 | 72 | 90 | 0.0 | 0.9 | 0.00 | 0.35 | 0.35 | 94 | 1015.2 |
| 20260510012418 | 72 | 187 | 0.0 | 0.9 | 0.00 | 0.35 | 0.35 | 93 | 1015.0 |
| 20260510011913 | 72 | 180 | 0.0 | 0.0 | 0.00 | 0.35 | 0.35 | 93 | 1014.9 |
| 20260510011408 | 72 | 90 | 0.0 | 0.0 | 0.00 | 0.35 | 0.35 | 93 | 1014.7 |
| 20260510010904 | 72 | 90 | 0.0 | 0.0 | 0.00 | 0.35 | 0.35 | 93 | 1014.8 |
| 20260510010402 | 72 | 90 | 0.0 | 0.0 | 0.00 | 0.35 | 0.35 | 93 | 1014.9 |
| 20260510005858 | 71 | 90 | 0.0 | 0.0 | 0.00 | 0.35 | 0.35 | 93 | 1014.8 |
| 20260510005354 | 72 | 90 | 0.0 | 0.0 | 0.00 | 0.35 | 0.35 | 93 | 1014.8 |
| 20260510004852 | 72 | 99 | 0.0 | 1.7 | 0.00 | 0.35 | 0.35 | 93 | 1014.8 |
| 20260510004349 | 72 | 172 | 0.0 | 0.0 | 0.00 | 0.35 | 0.35 | 93 | 1014.8 |
| 20260510003847 | 72 | 172 | 0.0 | 0.0 | 0.00 | 0.35 | 0.35 | 93 | 1014.8 |
| 20260510003344 | 72 | 81 | 0.0 | 0.0 | 0.00 | 0.35 | 0.35 | 93 | 1015.0 |
| 20260510002842 | 72 | 81 | 0.0 | 0.0 | 0.00 | 0.35 | 0.35 | 93 | 1014.8 |
| 20260510002340 | 72 | 81 | 0.0 | 0.0 | 0.00 | 0.35 | 0.35 | 93 | 1015.0 |
| 20260510001837 | 72 | 74 | 0.9 | 1.7 | 0.00 | 0.35 | 0.35 | 93 | 1014.9 |
| 20260510001335 | 72 | 172 | 0.0 | 0.0 | 0.00 | 0.35 | 0.35 | 93 | 1015.1 |
| 20260510000830 | 72 | 172 | 0.0 | 0.0 | 0.00 | 0.35 | 0.35 | 93 | 1015.0 |
| 20260510000328 | 72 | 172 | 0.0 | 0.0 | 0.00 | 0.35 | 0.35 | 93 | 1015.1 |
| 20260509235825 | 72 | 172 | 0.0 | 0.0 | 0.02 | 0.35 | 0.35 | 93 | 1015.1 |
| 20260509235321 | 72 | 172 | 0.0 | 0.0 | 0.02 | 0.35 | 0.35 | 93 | 1015.0 |
| 20260509234817 | 72 | 172 | 0.0 | 0.0 | 0.02 | 0.34 | 0.34 | 93 | 1015.0 |
| 20260509234314 | 72 | 172 | 0.0 | 0.0 | 0.02 | 0.34 | 0.34 | 93 | 1015.1 |
| 20260509233812 | 72 | 172 | 0.0 | 0.0 | 0.00 | 0.34 | 0.34 | 93 | 1015.1 |
| 20260509233309 | 72 | 160 | 0.9 | 0.9 | 0.00 | 0.34 | 0.34 | 93 | 1015.1 |
| 20260509232805 | 72 | 82 | 0.0 | 0.0 | 0.00 | 0.34 | 0.34 | 93 | 1014.9 |
| 20260509232306 | 72 | 82 | 0.0 | 0.0 | 0.00 | 0.34 | 0.34 | 93 | 1015.1 |
| 20260509231759 | 72 | 82 | 0.0 | 0.0 | 0.00 | 0.34 | 0.34 | 93 | 1015.1 |
| 20260509231256 | 73 | 82 | 0.0 | 0.0 | 0.00 | 0.34 | 0.34 | 93 | 1014.9 |
| 20260509230754 | 72 | 82 | 0.0 | 0.0 | 0.00 | 0.34 | 0.34 | 92 | 1015.1 |
| 20260509230250 | 72 | 82 | 0.0 | 0.0 | 0.00 | 0.34 | 0.34 | 92 | 1014.7 |
| 20260509225745 | 72 | 82 | 0.0 | 0.9 | 0.00 | 0.34 | 0.34 | 92 | 1014.9 |
| 20260509225242 | 72 | 81 | 0.0 | 0.0 | 0.00 | 0.34 | 0.34 | 92 | 1014.7 |
| 20260509224737 | 72 | 90 | 0.0 | 0.0 | 0.02 | 0.34 | 0.34 | 92 | 1014.8 |
| 20260509224235 | 72 | 99 | 0.0 | 0.0 | 0.02 | 0.34 | 0.34 | 92 | 1014.8 |
| 20260509223732 | 72 | 220 | 0.0 | 1.7 | 0.02 | 0.34 | 0.34 | 92 | 1015.0 |
| 20260509223229 | 72 | 98 | 0.0 | 0.9 | 0.02 | 0.34 | 0.34 | 92 | 1015.0 |
| 20260509222726 | 72 | 84 | 0.9 | 2.6 | 0.00 | 0.33 | 0.33 | 92 | 1014.9 |
| 20260509222221 | 72 | 82 | 0.9 | 0.9 | 0.00 | 0.33 | 0.33 | 92 | 1015.2 |
| 20260509221717 | 72 | 81 | 0.0 | 0.9 | 0.00 | 0.33 | 0.33 | 92 | 1014.9 |
| 20260509221213 | 72 | 106 | 0.0 | 1.7 | 0.00 | 0.33 | 0.33 | 92 | 1015.0 |
| 20260509220709 | 72 | 106 | 0.9 | 0.9 | 0.00 | 0.33 | 0.33 | 92 | 1014.8 |
| 20260509220206 | 72 | 75 | 0.0 | 1.7 | 0.00 | 0.33 | 0.33 | 92 | 1014.8 |
| 20260509215701 | 72 | 81 | 0.0 | 0.9 | 0.00 | 0.33 | 0.33 | 92 | 1015.1 |
| 20260509215158 | 71 | 82 | 0.9 | 1.7 | 0.00 | 0.33 | 0.33 | 92 | 1014.8 |
| 20260509214655 | 71 | 348 | 0.0 | 0.9 | 0.00 | 0.33 | 0.33 | 92 | 1014.7 |
| 20260509214152 | 71 | 78 | 1.7 | 4.3 | 0.00 | 0.33 | 0.33 | 92 | 1014.5 |
| 20260509213649 | 72 | 74 | 0.9 | 1.7 | 0.00 | 0.33 | 0.33 | 92 | 1014.6 |
| 20260509213145 | 72 | 90 | 0.9 | 2.6 | 0.00 | 0.33 | 0.33 | 92 | 1014.6 |
| 20260509212642 | 72 | 131 | 1.7 | 1.7 | 0.00 | 0.33 | 0.33 | 92 | 1014.7 |
| 20260509212139 | 72 | 70 | 1.7 | 2.6 | 0.00 | 0.33 | 0.33 | 92 | 1014.6 |
| 20260509211635 | 72 | 48 | 1.7 | 4.3 | 0.00 | 0.33 | 0.33 | 92 | 1014.8 |
| 20260509211132 | 72 | 16 | 0.0 | 2.6 | 0.05 | 0.33 | 0.33 | 91 | 1014.5 |
| 20260509210629 | 71 | 84 | 0.9 | 3.5 | 0.02 | 0.33 | 0.33 | 91 | 1014.6 |
| 20260509210126 | 71 | 14 | 1.7 | 4.3 | 0.00 | 0.32 | 0.32 | 91 | 1014.5 |
| 20260509205620 | 72 | 84 | 4.3 | 5.2 | 0.00 | 0.32 | 0.32 | 91 | 1014.7 |
| 20260509205115 | 72 | 33 | 1.7 | 3.5 | 0.00 | 0.32 | 0.32 | 91 | 1014.7 |
| 20260509204612 | 73 | 82 | 0.0 | 2.6 | 0.00 | 0.32 | 0.32 | 91 | 1014.7 |
| 20260509204108 | 73 | 314 | 3.5 | 5.2 | 0.07 | 0.32 | 0.32 | 90 | 1014.6 |
| 20260509203604 | 75 | 42 | 4.3 | 4.3 | 0.05 | 0.32 | 0.32 | 90 | 1014.5 |
| 20260509203103 | 75 | 0 | 0.0 | 2.6 | 0.00 | 0.31 | 0.31 | 90 | 1014.4 |
| 20260509202556 | 75 | 11 | 1.7 | 2.6 | 0.00 | 0.31 | 0.31 | 90 | 1014.5 |
| 20260509202053 | 75 | 343 | 3.5 | 4.3 | 0.00 | 0.31 | 0.31 | 90 | 1014.6 |
| 20260509201547 | 75 | 0 | 0.0 | 0.9 | 0.02 | 0.31 | 0.31 | 90 | 1014.5 |
| 20260509201046 | 75 | 32 | 0.0 | 1.7 | 0.07 | 0.31 | 0.31 | 90 | 1014.3 |
| 20260509200545 | 75 | 14 | 0.0 | 0.0 | 0.12 | 0.31 | 0.31 | 89 | 1014.5 |
| 20260509200042 | 76 | 186 | 0.0 | 1.7 | 0.07 | 0.30 | 0.30 | 89 | 1014.4 |
| 20260509195537 | 75 | 15 | 0.0 | 0.9 | 0.00 | 0.29 | 0.29 | 89 | 1014.5 |
| 20260509195032 | 76 | 90 | 0.0 | 0.9 | 0.02 | 0.29 | 0.29 | 89 | 1014.3 |
| 20260509194527 | 76 | 106 | 0.0 | 0.0 | 0.00 | 0.28 | 0.28 | 88 | 1014.6 |
| 20260509194025 | 76 | 99 | 0.0 | 0.9 | 0.00 | 0.28 | 0.28 | 88 | 1014.7 |
| 20260509193525 | 76 | 114 | 0.0 | 0.0 | 0.02 | 0.28 | 0.28 | 88 | 1014.5 |
| 20260509193022 | 76 | 114 | 0.0 | 0.9 | 0.05 | 0.28 | 0.28 | 87 | 1014.1 |
| 20260509192518 | 77 | 127 | 1.7 | 1.7 | 0.07 | 0.28 | 0.28 | 86 | 1014.1 |
| 20260509192013 | 77 | 0 | 0.0 | 3.5 | 0.12 | 0.28 | 0.28 | 84 | 1014.3 |
| 20260509191508 | 78 | 49 | 0.0 | 2.6 | 0.14 | 0.26 | 0.26 | 83 | 1014.3 |
| 20260509191004 | 79 | 81 | 1.7 | 1.7 | 0.07 | 0.25 | 0.25 | 81 | 1014.3 |
| 20260509190501 | 80 | 82 | 0.0 | 0.9 | 0.00 | 0.24 | 0.24 | 79 | 1014.5 |
| 20260509185959 | 79 | 99 | 0.0 | 1.7 | 0.00 | 0.24 | 0.24 | 78 | 1014.3 |
| 20260509185456 | 80 | 90 | 0.0 | 1.7 | 0.00 | 0.24 | 0.24 | 77 | 1014.2 |
| 20260509184952 | 80 | 120 | 1.7 | 1.7 | 0.00 | 0.24 | 0.24 | 77 | 1014.3 |
| 20260509184451 | 80 | 74 | 1.7 | 1.7 | 0.00 | 0.24 | 0.24 | 76 | 1014.4 |
| 20260509183946 | 80 | 145 | 0.0 | 1.7 | 0.00 | 0.24 | 0.24 | 76 | 1014.3 |
| 20260509183441 | 80 | 140 | 1.7 | 1.7 | 0.00 | 0.24 | 0.24 | 75 | 1014.3 |
| 20260509182938 | 80 | 98 | 0.9 | 2.6 | 0.00 | 0.24 | 0.24 | 75 | 1014.6 |
| 20260509182434 | 81 | 35 | 0.9 | 2.6 | 0.00 | 0.24 | 0.24 | 74 | 1014.4 |
| 20260509181931 | 82 | 60 | 1.7 | 2.6 | 0.00 | 0.24 | 0.24 | 74 | 1014.4 |
| 20260509181430 | 82 | 115 | 1.7 | 3.5 | 0.00 | 0.24 | 0.24 | 73 | 1014.6 |
| 20260509180926 | 83 | 331 | 0.0 | 2.6 | 0.00 | 0.24 | 0.24 | 72 | 1014.4 |
| 20260509180422 | 83 | 45 | 2.6 | 3.5 | 0.00 | 0.24 | 0.24 | 73 | 1014.5 |
| 20260509175919 | 82 | 83 | 0.9 | 3.5 | 0.00 | 0.24 | 0.24 | 74 | 1014.4 |
| 20260509175415 | 81 | 102 | 2.6 | 5.2 | 0.00 | 0.24 | 0.24 | 75 | 1014.7 |
| 20260509174912 | 82 | 165 | 0.0 | 4.3 | 0.00 | 0.24 | 0.24 | 75 | 1014.8 |
| 20260509174408 | 81 | 82 | 1.7 | 3.5 | 0.00 | 0.24 | 0.24 | 75 | 1015.1 |
| 20260509173904 | 81 | 143 | 1.7 | 3.5 | 0.00 | 0.24 | 0.24 | 76 | 1014.8 |
| 20260509173403 | 80 | 126 | 0.0 | 2.6 | 0.00 | 0.24 | 0.24 | 77 | 1015.2 |
| 20260509172900 | 79 | 99 | 1.7 | 6.1 | 0.00 | 0.24 | 0.24 | 77 | 1015.2 |
| 20260509172357 | 79 | 132 | 3.5 | 4.3 | 0.00 | 0.24 | 0.24 | 76 | 1015.0 |
| 20260509171853 | 79 | 14 | 0.0 | 1.7 | 0.00 | 0.24 | 0.24 | 77 | 1015.1 |
| 20260509171349 | 79 | 180 | 0.0 | 2.6 | 0.00 | 0.24 | 0.24 | 77 | 1014.9 |
| 20260509170846 | 79 | 69 | 2.6 | 2.6 | 0.00 | 0.24 | 0.24 | 77 | 1015.1 |
| 20260509170341 | 80 | 166 | 0.9 | 2.6 | 0.00 | 0.24 | 0.24 | 77 | 1015.0 |
| 20260509165836 | 79 | 68 | 1.7 | 3.5 | 0.00 | 0.24 | 0.24 | 77 | 1015.0 |
| 20260509165331 | 80 | 106 | 0.9 | 2.6 | 0.00 | 0.24 | 0.24 | 77 | 1015.2 |
| 20260509164827 | 79 | 29 | 0.9 | 2.6 | 0.00 | 0.24 | 0.24 | 78 | 1015.2 |
| 20260509164323 | 78 | 270 | 2.6 | 2.6 | 0.00 | 0.24 | 0.24 | 78 | 1015.1 |
| 20260509163820 | 78 | 80 | 1.7 | 2.6 | 0.00 | 0.24 | 0.24 | 78 | 1015.0 |
| 20260509163316 | 78 | 117 | 1.7 | 1.7 | 0.00 | 0.24 | 0.24 | 79 | 1015.1 |
| 20260509162816 | 78 | 194 | 0.0 | 2.6 | 0.00 | 0.24 | 0.24 | 79 | 1015.3 |